| time (UTC) | temp C | wind direction | speed KPH | gust KPH | rain 1hr cm | rain 24hr cm | rain mn cm | humidity % | barometer mb |
| 20260506194531 | 14 | 9 | 6.4 | 0.0 | 0.00 | 0.00 | 0.00 | 75 | 1019.9 |
| 20260506193048 | 13 | 17 | 4.8 | 0.0 | 0.00 | 0.00 | 0.00 | 76 | 1019.8 |
| 20260506191558 | 13 | 289 | 3.2 | 0.0 | 0.00 | 0.00 | 0.00 | 80 | 1019.8 |
| 20260506184501 | 13 | 311 | 4.8 | 0.0 | 0.00 | 0.00 | 0.00 | 81 | 1019.9 |
| 20260506183017 | 12 | 319 | 4.8 | 0.0 | 0.00 | 0.00 | 0.00 | 83 | 1020.0 |
| 20260506181613 | 12 | 271 | 4.8 | 0.0 | 0.00 | 0.00 | 0.00 | 83 | 1020.0 |
| 20260506180018 | 12 | 5 | 6.4 | 0.0 | 0.00 | 0.00 | 0.00 | 83 | 1019.9 |
| 20260506174534 | 12 | 331 | 3.2 | 0.0 | 0.00 | 0.00 | 0.00 | 82 | 1019.6 |
| 20260506173056 | 12 | 22 | 1.6 | 0.0 | 0.00 | 0.00 | 0.00 | 83 | 1019.5 |
| 20260506171603 | 12 | 44 | 1.6 | 0.0 | 0.00 | 0.00 | 0.00 | 83 | 1019.5 |
| 20260506170017 | 12 | 303 | 0.0 | 0.0 | 0.00 | 0.00 | 0.00 | 84 | 1019.3 |
| 20260506164536 | 12 | 344 | 1.6 | 0.0 | 0.00 | 0.00 | 0.00 | 83 | 1019.5 |
| 20260506163051 | 11 | 333 | 3.2 | 0.0 | 0.00 | 0.00 | 0.00 | 83 | 1019.5 |
| 20260506161606 | 11 | 30 | 1.6 | 0.0 | 0.00 | 0.00 | 0.00 | 83 | 1019.2 |
| 20260506160038 | 11 | 308 | 3.2 | 0.0 | 0.00 | 0.00 | 0.00 | 84 | 1019.3 |
| 20260506154605 | 11 | 19 | 4.8 | 0.0 | 0.00 | 0.00 | 0.00 | 84 | 1019.2 |
| 20260506153043 | 11 | 270 | 1.6 | 0.0 | 0.00 | 0.00 | 0.00 | 84 | 1019.0 |
| 20260506151517 | 11 | 300 | 1.6 | 0.0 | 0.00 | 0.00 | 0.00 | 85 | 1018.5 |
| 20260506150033 | 11 | 5 | 0.0 | 0.0 | 0.00 | 0.00 | 0.00 | 84 | 1018.5 |
| 20260506144553 | 11 | 5 | 3.2 | 0.0 | 0.00 | 0.00 | 0.00 | 86 | 1019.0 |
| 20260506143103 | 11 | 360 | 3.2 | 0.0 | 0.00 | 0.00 | 0.00 | 87 | 1019.0 |
| 20260506141540 | 10 | 360 | 3.2 | 0.0 | 0.00 | 0.00 | 0.00 | 87 | 1019.0 |
| 20260506134536 | 10 | 321 | 3.2 | 0.0 | 0.00 | 0.00 | 0.00 | 88 | 1018.4 |
| 20260506133053 | 10 | 5 | 1.6 | 0.0 | 0.00 | 0.00 | 0.00 | 88 | 1018.4 |
| 20260506131606 | 10 | 10 | 3.2 | 0.0 | 0.00 | 0.00 | 0.00 | 89 | 1018.3 |
| 20260506130039 | 10 | 340 | 1.6 | 0.0 | 0.00 | 0.00 | 0.00 | 89 | 1018.1 |
| 20260506124559 | 10 | 355 | 1.6 | 0.0 | 0.00 | 0.00 | 0.00 | 89 | 1017.9 |
| 20260506123012 | 10 | 306 | 3.2 | 0.0 | 0.00 | 0.00 | 0.00 | 89 | 1017.8 |
| 20260506121523 | 10 | 333 | 3.2 | 0.0 | 0.00 | 0.00 | 0.00 | 89 | 1017.7 |
| 20260506120106 | 10 | 348 | 3.2 | 0.0 | 0.00 | 0.00 | 0.00 | 89 | 1017.7 |
| 20260506114527 | 10 | 317 | 3.2 | 0.0 | 0.00 | 0.00 | 0.00 | 89 | 1017.6 |
| 20260506113037 | 11 | 346 | 4.8 | 0.0 | 0.00 | 0.00 | 0.00 | 89 | 1017.6 |
| 20260506111509 | 11 | 332 | 3.2 | 0.0 | 0.00 | 0.00 | 0.00 | 89 | 1017.4 |
| 20260506110045 | 11 | 9 | 4.8 | 0.0 | 0.00 | 0.00 | 0.00 | 89 | 1017.3 |
| 20260506104503 | 11 | 30 | 3.2 | 0.0 | 0.00 | 0.00 | 0.00 | 88 | 1017.1 |
| 20260506103032 | 11 | 355 | 4.8 | 0.0 | 0.00 | 0.00 | 0.00 | 88 | 1017.1 |
| 20260506101545 | 11 | 336 | 3.2 | 0.0 | 0.00 | 0.00 | 0.00 | 88 | 1017.0 |
| 20260506100034 | 11 | 355 | 4.8 | 0.0 | 0.00 | 0.00 | 0.00 | 88 | 1016.8 |
| 20260506094559 | 11 | 324 | 3.2 | 0.0 | 0.00 | 0.00 | 0.00 | 88 | 1016.7 |
| 20260506093006 | 11 | 322 | 4.8 | 0.0 | 0.00 | 0.00 | 0.00 | 88 | 1016.5 |
| 20260506091524 | 11 | 355 | 6.4 | 0.0 | 0.00 | 0.00 | 0.00 | 87 | 1016.4 |
| 20260506090044 | 11 | 23 | 4.8 | 0.0 | 0.00 | 0.00 | 0.00 | 87 | 1016.5 |
| 20260506084559 | 11 | 345 | 4.8 | 0.0 | 0.00 | 0.00 | 0.00 | 87 | 1016.4 |
| 20260506083038 | 11 | 10 | 4.8 | 0.0 | 0.00 | 0.00 | 0.00 | 87 | 1016.4 |
| 20260506081603 | 11 | 311 | 4.8 | 0.0 | 0.00 | 0.00 | 0.00 | 87 | 1016.3 |
| 20260506073046 | 11 | 307 | 3.2 | 0.0 | 0.00 | 0.00 | 0.00 | 87 | 1016.1 |
| 20260506071524 | 11 | 346 | 3.2 | 0.0 | 0.00 | 0.00 | 0.00 | 87 | 1015.9 |
| 20260506061529 | 12 | 15 | 4.8 | 0.0 | 0.00 | 0.00 | 0.00 | 86 | 1015.5 |
| 20260506044614 | 12 | 15 | 6.4 | 0.0 | 0.00 | 0.00 | 0.00 | 85 | 1015.2 |
| 20260506043017 | 12 | 9 | 6.4 | 0.0 | 0.00 | 0.00 | 0.00 | 84 | 1015.0 |
| 20260506041533 | 12 | 355 | 6.4 | 0.0 | 0.00 | 0.00 | 0.00 | 83 | 1014.7 |
| 20260506040011 | 12 | 46 | 4.8 | 0.0 | 0.00 | 0.00 | 0.00 | 82 | 1014.7 |
| 20260506034534 | 13 | 350 | 6.4 | 0.0 | 0.00 | 0.00 | 0.00 | 81 | 1014.3 |
| 20260506033055 | 13 | 355 | 4.8 | 0.0 | 0.00 | 0.00 | 0.00 | 80 | 1014.1 |
| 20260506031526 | 13 | 355 | 4.8 | 0.0 | 0.00 | 0.00 | 0.00 | 78 | 1014.0 |
| 20260506030041 | 14 | 308 | 4.8 | 0.0 | 0.00 | 0.00 | 0.00 | 77 | 1013.8 |
| 20260506024558 | 15 | 304 | 4.8 | 0.0 | 0.00 | 0.00 | 0.00 | 76 | 1013.6 |
| 20260506023101 | 15 | 337 | 8.0 | 0.0 | 0.00 | 0.00 | 0.00 | 75 | 1013.5 |
| 20260506021522 | 15 | 345 | 6.4 | 0.0 | 0.00 | 0.00 | 0.00 | 74 | 1013.6 |
| 20260506020105 | 16 | 313 | 6.4 | 0.0 | 0.00 | 0.00 | 0.00 | 73 | 1013.5 |
| 20260506014512 | 16 | 13 | 6.4 | 0.0 | 0.00 | 0.00 | 0.00 | 73 | 1013.5 |
| 20260506013022 | 16 | 325 | 4.8 | 0.0 | 0.00 | 0.00 | 0.00 | 73 | 1013.5 |
| 20260506011547 | 16 | 319 | 4.8 | 0.0 | 0.00 | 0.00 | 0.00 | 72 | 1013.5 |
| 20260506010014 | 17 | 9 | 4.8 | 0.0 | 0.00 | 0.00 | 0.00 | 70 | 1013.5 |
| 20260506004528 | 17 | 331 | 3.2 | 0.0 | 0.00 | 0.00 | 0.00 | 71 | 1013.6 |
| 20260506003038 | 17 | 288 | 4.8 | 0.0 | 0.00 | 0.00 | 0.00 | 70 | 1013.8 |
| 20260506001502 | 17 | 254 | 6.4 | 0.0 | 0.00 | 0.00 | 0.00 | 69 | 1013.9 |
| 20260506000045 | 17 | 350 | 6.4 | 0.0 | 0.00 | 0.00 | 0.00 | 68 | 1014.0 |
| 20260505234544 | 17 | 244 | 6.4 | 0.0 | 0.00 | 0.00 | 0.00 | 71 | 1014.0 |
| 20260505233004 | 17 | 326 | 4.8 | 0.0 | 0.00 | 0.00 | 0.00 | 70 | 1014.1 |
| 20260505231558 | 16 | 360 | 6.4 | 0.0 | 0.00 | 0.00 | 0.00 | 69 | 1014.3 |
| 20260505230043 | 16 | 342 | 6.4 | 0.0 | 0.00 | 0.00 | 0.00 | 73 | 1014.5 |
| 20260505224554 | 16 | 308 | 6.4 | 0.0 | 0.00 | 0.00 | 0.00 | 72 | 1014.6 |
| 20260505223012 | 16 | 288 | 6.4 | 0.0 | 0.00 | 0.00 | 0.00 | 73 | 1014.6 |
| 20260505221535 | 16 | 308 | 6.4 | 0.0 | 0.00 | 0.00 | 0.00 | 72 | 1014.6 |
| 20260505220046 | 16 | 321 | 4.8 | 0.0 | 0.00 | 0.00 | 0.00 | 71 | 1014.6 |
| 20260505214606 | 16 | 275 | 4.8 | 0.0 | 0.00 | 0.00 | 0.00 | 71 | 1014.7 |
| 20260505213012 | 16 | 298 | 4.8 | 0.0 | 0.00 | 0.00 | 0.00 | 73 | 1014.9 |
| 20260505211528 | 16 | 278 | 3.2 | 0.0 | 0.00 | 0.00 | 0.00 | 73 | 1015.1 |
| 20260505210045 | 15 | 310 | 4.8 | 0.0 | 0.00 | 0.00 | 0.00 | 71 | 1015.1 |
| 20260505204559 | 16 | 355 | 3.2 | 0.0 | 0.00 | 0.00 | 0.00 | 72 | 1015.2 |
| 20260505203018 | 15 | 298 | 3.2 | 0.0 | 0.00 | 0.00 | 0.00 | 74 | 1015.1 |
| 20260505201527 | 15 | 315 | 1.6 | 0.0 | 0.00 | 0.00 | 0.00 | 72 | 1015.1 |
| 20260505200046 | 15 | 327 | 3.2 | 0.0 | 0.00 | 0.00 | 0.00 | 74 | 1015.2 |